N1OTX Weather Reports


Display with metric or nautical units.
time (UTC)temp
F
wind
direction
speed
MPH
gust
MPH
rain 1hr
in
rain 24hr
in
rain mn
in
humidity
%
barometer
mb
20240416020508 50 0.0 1.0 0.00 0.01 0.00 74 1014.5
20240416020008 51 0.0 2.0 0.00 0.01 0.00 73 1014.5
20240416015508 51 23 1.0 2.0 0.00 0.01 0.00 72 1014.6
20240416015008 51 0.0 2.0 0.00 0.01 0.00 72 1014.5
20240416014508 52 23 1.0 3.0 0.00 0.01 0.00 71 1014.6
20240416014008 52 23 1.0 3.0 0.00 0.01 0.00 70 1014.6
20240416013508 53 0.0 0.0 0.00 0.01 0.00 69 1014.6
20240416013008 54 0.0 0.0 0.00 0.01 0.00 66 1014.5
20240416012508 55 23 1.0 2.0 0.00 0.01 0.00 64 1014.4
20240416012008 55 23 1.0 3.0 0.00 0.01 0.00 63 1014.1
20240416011508 55 0 2.0 6.0 0.00 0.01 0.00 63 1014.0
20240416011008 55 0 2.0 3.0 0.00 0.01 0.00 63 1013.8
20240416010508 55 23 1.0 3.0 0.00 0.01 0.00 64 1013.7
20240416010008 55 23 1.0 5.0 0.00 0.01 0.00 64 1013.6
20240416005538 56 0 2.0 7.0 0.00 0.01 0.00 62 1013.4
20240416005008 56 0 3.0 4.0 0.00 0.01 0.00 62 1013.2
20240416004508 57 0 3.0 6.0 0.00 0.01 0.00 61 1013.2
20240416004040 57 0 3.0 6.0 0.00 0.01 0.00 60 1013.1
20240416003510 57 0 3.0 5.0 0.00 0.01 0.00 59 1013.1
20240416003010 58 0 4.0 11.0 0.00 0.01 0.00 58 1013.0
20240416002510 58 338 5.0 11.0 0.00 0.01 0.00 56 1013.0
20240416002010 59 0 4.0 9.0 0.00 0.01 0.00 52 1012.8
20240416001510 60 338 5.0 11.0 0.00 0.01 0.00 42 1012.6
20240416001010 60 338 3.0 6.0 0.00 0.01 0.00 42 1012.4
20240416000510 60 338 3.0 6.0 0.00 0.01 0.00 41 1012.3
20240416000010 60 338 3.0 5.0 0.00 0.01 0.00 41 1012.1
20240415235510 60 338 4.0 11.0 0.00 0.01 0.00 41 1012.0
20240415235010 60 338 4.0 10.0 0.00 0.01 0.00 42 1012.0
20240415234540 61 338 5.0 11.0 0.00 0.01 0.00 41 1011.9
20240415234010 61 338 3.0 12.0 0.00 0.01 0.00 41 1011.8
20240415233510 61 338 5.0 12.0 0.00 0.01 0.00 41 1011.5
20240415233010 61 338 3.0 6.0 0.00 0.01 0.00 41 1011.5
20240415232510 61 338 3.0 10.0 0.00 0.01 0.00 41 1011.4
20240415232010 62 338 3.0 8.0 0.00 0.01 0.00 41 1011.4
20240415231540 62 338 3.0 6.0 0.00 0.01 0.00 43 1011.2
20240415231041 62 338 4.0 10.0 0.00 0.01 0.00 41 1011.0
20240415230510 62 338 5.0 14.0 0.00 0.01 0.00 42 1010.9
20240415230010 63 338 4.0 10.0 0.00 0.01 0.00 43 1010.8
20240415225510 63 315 3.0 10.0 0.00 0.01 0.00 43 1010.7
20240415225010 63 0 2.0 6.0 0.00 0.01 0.00 45 1010.7
20240415224510 63 338 2.0 5.0 0.00 0.01 0.00 41 1010.6
20240415224010 64 315 4.0 9.0 0.00 0.01 0.00 41 1010.5
20240415223510 64 315 3.0 10.0 0.00 0.01 0.00 41 1010.4
20240415223010 64 338 5.0 10.0 0.00 0.01 0.00 40 1010.4
20240415222510 64 315 4.0 11.0 0.00 0.02 0.00 40 1010.3
20240415222010 65 338 4.0 11.0 0.00 0.03 0.00 40 1010.2
20240415221510 65 338 5.0 12.0 0.00 0.04 0.00 39 1010.2
20240415221010 65 338 3.0 6.0 0.00 0.04 0.00 42 1010.2
20240415220510 65 338 5.0 14.0 0.00 0.04 0.00 41 1010.2
20240415220010 65 315 5.0 9.0 0.00 0.04 0.00 41 1010.0
20240415215510 65 315 6.0 13.0 0.00 0.05 0.00 40 1010.0
20240415215010 65 315 4.0 9.0 0.00 0.05 0.00 41 1010.0
20240415214510 65 0 3.0 9.0 0.00 0.05 0.00 43 1009.7
20240415214010 65 315 4.0 9.0 0.00 0.05 0.00 42 1009.7
20240415213510 65 315 4.0 10.0 0.00 0.05 0.00 43 1009.6
20240415213110 65 315 4.0 13.0 0.00 0.05 0.00 44 1009.6
20240415212510 65 315 3.0 7.0 0.00 0.05 0.00 44 1009.5
20240415212040 65 338 4.0 11.0 0.00 0.05 0.00 43 1009.4
20240415211510 66 293 5.0 13.0 0.00 0.05 0.00 43 1009.4
20240415211010 66 315 4.0 9.0 0.00 0.05 0.00 44 1009.5
20240415210510 65 315 4.0 13.0 0.00 0.05 0.00 44 1009.3
20240415210010 66 315 5.0 10.0 0.00 0.05 0.00 43 1009.2
20240415205510 66 338 6.0 14.0 0.00 0.05 0.00 44 1009.1
20240415205040 66 338 6.0 12.0 0.00 0.05 0.00 44 1009.1
20240415204510 66 338 5.0 12.0 0.00 0.05 0.00 45 1009.0
20240415204010 67 338 5.0 13.0 0.00 0.05 0.00 46 1008.9
20240415203510 67 315 3.0 11.0 0.00 0.05 0.00 45 1008.9
20240415203010 67 315 5.0 11.0 0.00 0.05 0.00 44 1008.8
20240415202510 68 338 4.0 9.0 0.00 0.05 0.00 44 1008.6
20240415202010 68 315 6.0 12.0 0.00 0.05 0.00 43 1008.4
20240415201510 69 0 4.0 9.0 0.00 0.05 0.00 42 1008.4
20240415201010 69 338 6.0 12.0 0.00 0.05 0.00 42 1008.2
20240415200510 69 315 6.0 15.0 0.00 0.05 0.00 46 1008.2
20240415200040 70 0 4.0 13.0 0.00 0.05 0.00 42 1008.1
20240415195510 69 338 6.0 11.0 0.00 0.05 0.00 43 1007.9
20240415195009 69 338 4.0 10.0 0.00 0.05 0.00 42 1008.0
20240415194510 69 0 2.0 8.0 0.00 0.05 0.00 44 1008.0
20240415194010 70 293 4.0 8.0 0.00 0.05 0.00 42 1007.9
20240415193510 72 293 4.0 10.0 0.00 0.05 0.00 46 1007.6
20240415193040 71 338 5.0 11.0 0.00 0.05 0.00 44 1007.7
20240415192510 70 338 4.0 10.0 0.00 0.05 0.00 45 1007.8
20240415192010 69 315 3.0 9.0 0.00 0.05 0.00 48 1007.9
20240415191509 69 315 3.0 8.0 0.00 0.05 0.00 45 1007.8
20240415191040 71 315 5.0 10.0 0.00 0.05 0.00 42 1007.6
20240415190510 72 338 4.0 11.0 0.00 0.05 0.00 41 1007.8
20240415190010 72 293 5.0 13.0 0.00 0.05 0.00 41 1007.7
20240415185510 72 315 5.0 13.0 0.00 0.05 0.00 40 1007.6
20240415185010 72 270 5.0 17.0 0.00 0.05 0.00 43 1007.5
20240415184510 72 293 4.0 11.0 0.00 0.05 0.00 43 1007.6
20240415184009 72 225 6.0 15.0 0.00 0.05 0.00 45 1007.7
20240415183509 71 338 4.0 8.0 0.00 0.05 0.00 45 1007.8
20240415183009 70 270 5.0 9.0 0.00 0.05 0.00 46 1007.8
20240415182510 70 315 4.0 9.0 0.00 0.05 0.00 50 1007.7
20240415182010 70 338 4.0 10.0 0.00 0.05 0.00 45 1007.9
20240415181540 69 315 4.0 8.0 0.00 0.05 0.00 48 1007.9
20240415181040 70 338 5.0 10.0 0.00 0.05 0.00 45 1007.9
20240415180509 70 338 4.0 11.0 0.00 0.05 0.00 47 1008.0
20240415180009 69 23 3.0 9.0 0.00 0.05 0.00 49 1008.1
20240415175510 69 45 2.0 6.0 0.00 0.05 0.00 49 1008.1
20240415175039 70 315 3.0 12.0 0.00 0.05 0.00 46 1008.1
20240415174510 70 225 4.0 13.0 0.00 0.05 0.00 46 1008.0
20240415174009 69 338 4.0 9.0 0.00 0.05 0.00 45 1007.9
20240415173509 69 203 5.0 14.0 0.00 0.05 0.00 46 1008.0
20240415173009 70 248 3.0 15.0 0.00 0.05 0.00 47 1008.1
20240415172510 70 0 4.0 8.0 0.00 0.05 0.00 48 1008.1
20240415172009 70 315 5.0 12.0 0.00 0.05 0.00 51 1008.0
20240415171509 69 270 4.0 16.0 0.00 0.05 0.00 52 1008.0
20240415171009 70 293 4.0 16.0 0.00 0.05 0.00 52 1007.9
20240415170509 69 338 4.0 14.0 0.00 0.05 0.00 53 1007.8
20240415170009 69 270 5.0 13.0 0.00 0.05 0.00 56 1007.9
20240415165509 68 203 4.0 11.0 0.00 0.05 0.00 52 1008.0
20240415165010 69 293 4.0 10.0 0.00 0.05 0.00 55 1008.0
20240415164510 69 225 6.0 14.0 0.00 0.05 0.00 56 1008.0
20240415164009 68 203 5.0 14.0 0.00 0.05 0.00 59 1008.0
20240415163509 67 158 2.0 4.0 0.00 0.05 0.00 63 1008.2
20240415163009 65 293 2.0 6.0 0.00 0.05 0.00 61 1008.4
20240415162509 65 270 3.0 9.0 0.00 0.05 0.00 61 1008.6
20240415162009 65 338 2.0 7.0 0.00 0.05 0.00 62 1008.6
20240415161510 64 248 4.0 9.0 0.00 0.05 0.00 64 1008.7
20240415161040 64 248 3.0 9.0 0.00 0.05 0.00 61 1008.7
20240415160509 64 203 5.0 10.0 0.00 0.05 0.00 62 1008.8
20240415160009 64 203 2.0 4.0 0.00 0.05 0.00 63 1008.7
20240415155509 63 270 3.0 6.0 0.00 0.05 0.00 66 1008.6
20240415155039 62 270 3.0 7.0 0.00 0.05 0.00 67 1008.6
20240415154539 62 203 5.0 11.0 0.00 0.05 0.00 64 1008.9
20240415154009 62 225 4.0 8.0 0.00 0.05 0.00 63 1008.9
20240415153510 62 180 1.0 4.0 0.00 0.05 0.00 65 1008.9
20240415153009 62 225 3.0 7.0 0.00 0.05 0.00 62 1009.0
20240415152540 63 0 2.0 5.0 0.00 0.05 0.00 61 1009.0
20240415152009 63 225 3.0 10.0 0.00 0.05 0.00 61 1009.1
20240415151540 64 180 3.0 8.0 0.00 0.05 0.00 64 1009.1
20240415151009 63 270 3.0 7.0 0.00 0.05 0.00 64 1009.0
20240415150509 61 293 2.0 3.0 0.00 0.05 0.00 66 1009.2
20240415150009 62 23 3.0 10.0 0.00 0.05 0.00 66 1009.2
20240415145509 62 23 2.0 4.0 0.00 0.05 0.00 67 1009.2
20240415145009 61 0 2.0 6.0 0.00 0.05 0.00 69 1009.1
20240415144510 60 315 1.0 3.0 0.00 0.05 0.00 68 1009.2
20240415144009 61 315 2.0 3.0 0.00 0.05 0.00 67 1009.3
20240415143509 61 338 2.0 4.0 0.00 0.05 0.00 73 1009.2
20240415143040 60 338 2.0 5.0 0.00 0.05 0.00 69 1009.1
20240415142509 60 315 1.0 4.0 0.00 0.05 0.00 69 1009.2
20240415142039 59 135 1.0 3.0 0.00 0.05 0.00 69 1009.3
20240415141509 59 225 2.0 6.0 0.00 0.05 0.00 73 1009.2
20240415141009 58 203 3.0 6.0 0.00 0.05 0.00 71 1009.4
20240415140509 59 203 3.0 6.0 0.00 0.05 0.00 70 1009.3
20240415140009 58 293 1.0 5.0 0.00 0.05 0.00 72 1009.4
20240415135509 58 338 2.0 4.0 0.00 0.05 0.00 72 1009.3
20240415135009 57 338 1.0 4.0 0.00 0.05 0.00 73 1009.1
20240415134539 57 338 2.0 4.0 0.00 0.05 0.00 73 1009.3
20240415134009 58 225 3.0 5.0 0.00 0.05 0.00 73 1009.3
20240415133509 57 315 2.0 6.0 0.00 0.05 0.00 73 1009.2
20240415133009 57 225 3.0 7.0 0.00 0.05 0.00 74 1009.3
20240415132509 57 270 2.0 7.0 0.00 0.05 0.00 74 1009.1
20240415132009 57 0 3.0 7.0 0.00 0.05 0.00 75 1009.3
20240415131509 56 248 2.0 6.0 0.00 0.05 0.00 75 1009.1
20240415131109 57 248 2.0 4.0 0.00 0.05 0.00 77 1009.1
20240415130509 56 248 2.0 8.0 0.00 0.05 0.00 76 1009.0
20240415130009 55 338 2.0 4.0 0.00 0.05 0.00 76 1009.0
20240415125509 55 315 2.0 6.0 0.00 0.05 0.00 76 1008.8
20240415125009 55 315 2.0 4.0 0.00 0.05 0.00 77 1008.9
20240415124509 55 338 1.0 2.0 0.00 0.05 0.00 78 1008.9
20240415124009 54 293 1.0 4.0 0.00 0.05 0.00 79 1008.9
20240415123509 54 0 1.0 5.0 0.00 0.05 0.00 80 1008.9
20240415123009 53 0 2.0 5.0 0.00 0.05 0.00 81 1008.7
20240415122509 53 315 2.0 5.0 0.00 0.05 0.00 81 1008.7
20240415122009 53 270 1.0 4.0 0.00 0.05 0.00 83 1008.7
20240415121509 52 270 1.0 4.0 0.00 0.05 0.00 84 1008.8
20240415121009 52 0.0 3.0 0.00 0.05 0.00 86 1008.7
20240415120509 51 0.0 2.0 0.00 0.05 0.00 87 1008.5
20240415120009 51 180 1.0 2.0 0.00 0.05 0.00 89 1008.4
20240415115509 50 0.0 1.0 0.00 0.05 0.00 90 1007.9
20240415115009 49 0.0 2.0 0.00 0.05 0.00 92 1007.9
20240415114509 48 0.0 0.0 0.00 0.05 0.00 93 1007.9
20240415114109 46 0.0 1.0 0.00 0.05 0.00 92 1007.7
20240415113509 45 0.0 0.0 0.00 0.05 0.00 93 1007.9
20240415113009 45 0.0 0.0 0.00 0.05 0.00 92 1008.1
20240415112539 44 0.0 0.0 0.00 0.05 0.00 92 1008.0
20240415112009 44 0.0 0.0 0.00 0.05 0.00 93 1007.9
20240415111509 43 0.0 0.0 0.00 0.05 0.00 93 1007.9
20240415111039 42 0.0 0.0 0.00 0.05 0.00 92 1007.9
20240415110539 42 0.0 0.0 0.00 0.05 0.00 92 1007.8
20240415110009 41 0.0 0.0 0.00 0.05 0.00 92 1007.8
20240415105539 41 0.0 0.0 0.00 0.05 0.00 92 1007.6
20240415105009 41 0.0 0.0 0.00 0.05 0.00 92 1007.6
20240415104509 40 0.0 0.0 0.00 0.05 0.00 92 1007.5
20240415104039 40 0.0 0.0 0.00 0.05 0.00 92 1007.5
20240415103509 40 0.0 0.0 0.00 0.05 0.00 92 1007.4
20240415103009 40 0.0 0.0 0.00 0.05 0.00 92 1007.2
20240415102509 40 0.0 0.0 0.00 0.05 0.00 92 1007.1
20240415102039 40 0.0 0.0 0.00 0.05 0.00 92 1007.0
20240415101509 40 0.0 0.0 0.00 0.05 0.00 92 1006.8
20240415101009 40 0.0 0.0 0.00 0.05 0.00 92 1006.7
20240415100509 39 0.0 0.0 0.00 0.05 0.00 92 1006.6
20240415100009 40 0.0 0.0 0.00 0.05 0.00 92 1006.6
20240415095509 40 0.0 0.0 0.00 0.05 0.00 92 1006.7
20240415095009 40 0.0 0.0 0.00 0.05 0.00 91 1006.5
20240415094509 40 0.0 0.0 0.00 0.05 0.00 91 1006.9
20240415094009 40 0.0 0.0 0.00 0.05 0.00 92 1006.8
20240415093509 40 0.0 0.0 0.00 0.05 0.00 91 1007.0
20240415093009 40 0.0 0.0 0.00 0.05 0.00 92 1006.8
20240415092509 40 0.0 0.0 0.00 0.05 0.00 92 1006.9
20240415092009 40 0.0 0.0 0.00 0.05 0.00 91 1006.9
20240415091509 40 0.0 0.0 0.00 0.05 0.00 91 1006.8
20240415091009 41 0.0 1.0 0.00 0.05 0.00 91 1006.7
20240415090509 40 0.0 0.0 0.00 0.05 0.00 91 1006.8
20240415090009 41 0.0 0.0 0.00 0.05 0.00 91 1006.8
20240415085509 41 0.0 0.0 0.00 0.05 0.00 91 1006.7
20240415085009 41 0.0 0.0 0.00 0.05 0.00 91 1006.6
20240415084509 41 0.0 0.0 0.00 0.05 0.00 91 1006.5
20240415084009 41 0.0 0.0 0.00 0.05 0.00 91 1006.5
20240415083609 41 0.0 0.0 0.00 0.05 0.00 91 1006.3
20240415083009 41 0.0 0.0 0.00 0.05 0.00 91 1006.3
20240415082509 41 0.0 0.0 0.00 0.05 0.00 91 1006.5
20240415082008 41 0.0 0.0 0.00 0.05 0.00 91 1006.3
20240415081509 42 0.0 0.0 0.00 0.05 0.00 91 1006.3
20240415081008 42 0.0 0.0 0.00 0.05 0.00 91 1006.4
20240415080509 42 0.0 0.0 0.00 0.05 0.00 91 1006.3
20240415080009 42 0.0 0.0 0.00 0.05 0.00 91 1006.2
20240415075509 42 0.0 0.0 0.00 0.05 0.00 91 1006.1
20240415075008 42 0.0 0.0 0.00 0.05 0.00 91 1006.1
20240415074509 42 0.0 0.0 0.00 0.05 0.00 91 1005.9
20240415074008 43 0.0 0.0 0.00 0.05 0.00 91 1005.9
20240415073509 43 0.0 0.0 0.00 0.05 0.00 91 1006.0
20240415073008 43 0.0 0.0 0.00 0.05 0.00 91 1005.7
20240415072508 43 0.0 0.0 0.00 0.05 0.00 91 1005.6
20240415072009 43 0.0 0.0 0.00 0.05 0.00 91 1005.5
20240415071509 43 0.0 0.0 0.00 0.05 0.00 91 1005.4
20240415071039 43 0.0 0.0 0.00 0.05 0.00 90 1005.3
20240415070509 44 0.0 0.0 0.00 0.05 0.00 90 1005.3
20240415070009 44 0.0 0.0 0.00 0.05 0.00 90 1005.2
20240415065539 44 0.0 0.0 0.00 0.05 0.00 90 1005.2
20240415065039 44 0.0 0.0 0.00 0.05 0.00 90 1005.1
20240415064508 45 0.0 0.0 0.00 0.05 0.00 90 1005.2
20240415064008 45 0.0 0.0 0.00 0.05 0.00 90 1005.1
20240415063539 45 0.0 0.0 0.00 0.05 0.00 90 1005.1
20240415063008 45 0.0 0.0 0.00 0.05 0.00 90 1005.1
20240415062508 45 0.0 0.0 0.00 0.05 0.00 90 1005.1
20240415062039 45 0.0 0.0 0.00 0.05 0.00 90 1005.2
20240415061508 45 0.0 0.0 0.00 0.05 0.00 90 1005.2
20240415061008 46 0.0 0.0 0.00 0.05 0.00 90 1005.3
20240415060609 46 0.0 0.0 0.00 0.05 0.00 90 1005.3
20240415060008 46 0.0 0.0 0.00 0.05 0.00 89 1005.4
20240415055508 46 0.0 0.0 0.00 0.05 0.00 89 1005.4
20240415055038 46 0.0 0.0 0.00 0.05 0.00 89 1005.5
20240415054508 46 0.0 0.0 0.00 0.05 0.00 89 1005.4
20240415054109 46 0.0 1.0 0.00 0.05 0.00 89 1005.3
20240415053609 46 0.0 0.0 0.00 0.05 0.00 89 1005.3
20240415053038 46 0.0 1.0 0.00 0.05 0.00 89 1005.3
20240415052508 46 0.0 0.0 0.00 0.05 0.00 89 1005.3
20240415052039 46 0.0 0.0 0.00 0.05 0.00 89 1005.3
20240415051508 47 0.0 0.0 0.00 0.05 0.00 88 1005.3
20240415051008 47 0.0 0.0 0.00 0.05 0.00 88 1005.4
20240415050538 47 0.0 0.0 0.00 0.05 0.00 88 1005.3
20240415050008 47 0.0 0.0 0.00 0.05 0.00 88 1005.4
20240415045508 47 0.0 0.0 0.00 0.05 0.00 87 1005.3
20240415045009 47 0.0 0.0 0.00 0.05 0.00 87 1005.2
20240415044508 48 0.0 0.0 0.00 0.05 0.00 86 1005.3
20240415044008 48 0.0 0.0 0.00 0.05 0.00 85 1005.3
20240415043508 48 0.0 0.0 0.00 0.05 0.00 85 1005.4
20240415043008 49 0.0 1.0 0.00 0.05 0.00 85 1005.4
20240415042508 48 0.0 2.0 0.00 0.05 0.00 85 1005.4
20240415042008 49 0.0 2.0 0.00 0.05 0.00 86 1005.6
20240415041508 49 0.0 2.0 0.00 0.05 0.00 85 1005.5
20240415041008 49 0.0 1.0 0.00 0.05 0.00 85 1005.7
20240415040508 49 0.0 4.0 0.00 0.05 0.00 85 1005.7
20240415040038 49 0.0 2.0 0.00 0.05 0.05 85 1005.8
20240415035508 49 180 1.0 4.0 0.00 0.05 0.05 85 1005.7
20240415035008 49 180 2.0 4.0 0.00 0.05 0.05 85 1005.8
20240415034508 49 180 1.0 3.0 0.00 0.05 0.05 85 1006.0
20240415034008 49 180 1.0 2.0 0.00 0.05 0.05 85 1006.0
20240415033508 49 0.0 0.0 0.00 0.05 0.05 85 1005.9
20240415033008 49 0.0 0.0 0.00 0.05 0.05 85 1005.9
20240415032508 49 0.0 1.0 0.00 0.05 0.05 85 1006.2
20240415032008 50 0.0 2.0 0.01 0.05 0.05 85 1006.1
20240415031508 50 0.0 2.0 0.01 0.05 0.05 84 1005.9
20240415031008 50 180 2.0 4.0 0.01 0.05 0.05 85 1005.9
20240415030508 50 180 1.0 5.0 0.01 0.05 0.05 85 1006.1
20240415030008 50 203 2.0 4.0 0.01 0.05 0.05 85 1006.1
20240415025508 50 203 1.0 3.0 0.01 0.05 0.05 85 1006.3
20240415025141 50 203 1.0 3.0 0.01 0.05 0.05 85 1006.4
20240415024510 50 203 1.0 3.0 0.01 0.05 0.05 85 1006.4
20240415024010 50 203 1.0 2.0 0.01 0.05 0.05 85 1006.3
20240415023510 50 0.0 3.0 0.01 0.05 0.05 85 1006.2
20240415023040 50 203 1.0 4.0 0.01 0.05 0.05 85 1006.4
20240415022510 50 203 2.0 4.0 0.01 0.05 0.05 85 1006.6
20240415022010 50 203 2.0 4.0 0.00 0.04 0.04 86 1006.7
20240415021510 50 0.0 0.0 0.00 0.04 0.04 86 1006.6
20240415021041 50 0.0 0.0 0.00 0.04 0.04 86 1006.7